Theta_e
310 312 314 316 318 319 321 321 325 327 332 344 343 342 343 345 346 346 350 352 348 346 346 347 346 345 341 341 341 340 339 336
310 311 314 314 315 317 319 319 323 323 321 322 333 335 338 343 345 347 347 350 347 344 346 346 344 344 341 339 341 337 337 338
308 310 310 310 310 311 312 316 322 321 320 322 325 331 337 340 344 346 348 348 350 346 345 342 345 340 343 339 338 334 336 337
306 306 306 308 306 306 307 309 316 325 323 322 324 327 335 337 340 342 345 348 349 347 346 346 344 345 341 340 337 331 328 331
303 303 303 304 304 304 303 304 306 317 324 326 326 325 323 333 337 340 343 347 347 347 346 346 346 343 342 342 340 333 330 324
300 300 301 301 301 301 300 299 300 303 307 318 324 330 329 329 336 339 342 343 342 342 343 342 339 339 342 338 335 332 329 326
300 301 301 300 300 298 298 296 296 297 299 305 311 318 333 330 332 336 338 341 342 343 340 338 341 339 338 336 332 333 331 329
298 298 299 299 298 296 293 292 293 294 296 299 302 307 314 332 335 335 336 338 337 339 339 335 335 334 331 334 334 335 334 331
298 298 297 297 297 295 294 289 291 293 293 296 301 302 305 325 334 335 335 328 325 323 324 324 325 332 329 327 329 332 334 331
297 297 295 294 293 294 293 290 289 290 292 294 298 298 301 307 316 322 323 323 325 329 327 325 324 324 323 326 327 326 331 333
296 294 293 293 292 292 293 291 288 289 290 291 294 297 300 304 309 311 316 319 320 325 326 328 330 330 330 331 329 328 329 329
296 294 295 293 292 290 291 290 289 287 288 291 292 294 297 299 304 308 310 313 315 317 318 323 323 326 328 328 327 326 325 326
296 295 294 291 289 289 288 288 287 287 288 291 291 290 293 297 301 304 308 310 311 313 315 316 319 320 323 323 323 326 325 324
294 294 291 288 288 288 287 287 288 288 288 289 290 290 289 293 296 301 304 306 308 309 311 312 313 314 317 320 320 319 315 320
293 291 292 290 289 288 288 288 288 288 288 288 289 290 290 292 295 296 299 303 304 305 307 309 310 310 312 310 308 309 311 314
290 290 290 290 289 289 287 287 287 287 287 288 289 290 291 292 293 295 296 297 300 302 304 305 307 308 302 301 301 303 304 308
289 289 288 289 288 288 287 286 286 287 286 286 288 289 289 290 291 294 294 295 296 298 300 301 303 303 292 293 293 298 301 303
288 288 288 288 288 288 286 286 287 286 286 285 286 287 287 288 289 291 292 293 293 295 295 297 298 300 292 292 291 296 300 302
288 288 288 288 288 288 287 288 287 286 285 284 285 286 286 288 289 289 290 291 291 291 292 294 294 296 291 291 290 297 298 299
Wind_Speed
16 18 19 21 20 20 17 15 16 13 11 9 10 12 12 12 11 12 15 14 17 15 13 13 12 9 10 11 12 11 8 10
19 18 22 25 24 24 24 20 16 13 10 10 11 12 11 12 12 15 16 14 16 15 14 13 12 12 12 12 10 11 9 9
17 22 22 23 24 25 25 27 23 16 13 12 9 10 11 11 12 14 15 16 17 17 18 14 15 12 15 13 12 6 7 9
23 23 23 22 23 24 25 27 26 24 19 14 13 10 11 10 10 10 14 18 17 18 19 15 16 14 13 14 12 11 7 5
21 22 23 23 22 21 22 24 25 25 29 18 17 14 14 12 12 11 12 16 18 17 18 17 16 12 15 14 13 12 11 8
19 20 19 20 21 21 20 22 24 25 26 25 18 21 13 13 11 15 14 13 15 15 16 18 17 14 14 13 15 15 14 11
17 18 18 17 17 19 20 21 20 22 24 24 23 24 22 15 15 12 11 10 11 17 16 13 17 16 15 13 13 12 11 9
15 19 20 20 21 20 18 22 20 20 22 22 22 22 25 22 19 11 13 10 10 15 18 14 12 12 8 15 14 12 12 12
14 17 17 19 21 20 20 19 21 19 21 22 20 21 15 17 15 12 10 5 3 2 5 4 4 5 9 8 6 9 10 11
17 17 16 18 19 20 19 18 19 18 19 19 18 18 20 17 16 5 6 5 4 11 11 11 10 13 11 6 8 10 12 12
15 15 16 16 17 18 18 18 17 18 17 17 15 17 18 17 12 11 7 5 4 1 4 6 8 9 10 11 7 6 10 12
13 14 13 17 16 17 19 17 17 17 15 16 19 15 16 16 12 10 10 8 7 5 2 2 1 4 3 5 5 9 10 12
14 14 14 15 16 16 17 16 16 15 14 13 15 14 14 13 15 14 13 9 6 5 4 5 4 6 4 3 5 9 10 11
15 15 7 7 9 10 14 13 13 14 15 12 13 14 11 11 15 13 13 13 11 9 6 6 5 5 4 6 4 5 6 7
16 15 14 7 8 8 12 12 12 12 15 13 14 15 15 13 15 16 15 12 12 11 10 7 5 4 4 9 10 10 11 7
16 16 16 16 16 16 15 16 14 15 15 14 16 16 14 15 16 14 13 12 11 12 10 8 7 6 10 11 11 10 11 12
16 16 17 17 17 16 16 16 16 14 15 16 14 15 15 14 14 12 10 11 12 10 10 9 9 6 14 9 8 9 9 10
15 15 15 15 16 16 17 16 16 16 14 16 17 16 14 14 13 13 12 10 10 11 11 10 10 8 12 10 9 10 10 10
14 14 14 15 15 15 15 15 15 16 16 16 16 16 18 17 15 15 15 13 12 12 11 13 12 11 14 14 14 11 9 10
Wind_Direction
7 359 359 353 356 345 340 334 328 313 307 254 243 245 238 236 226 221 215 194 202 214 215 220 221 192 194 213 218 214 194 222
1 358 3 1 350 346 342 328 318 312 289 263 242 236 236 228 231 232 220 206 196 208 221 219 192 206 195 204 212 218 208 219
356 11 359 357 349 348 340 335 324 306 297 292 256 255 239 236 225 225 227 219 200 201 213 213 201 201 204 191 194 195 218 206
360 356 356 351 355 350 343 339 333 320 300 289 279 263 248 247 234 240 221 221 214 202 210 213 209 210 194 188 181 173 186 204
357 353 355 349 355 353 348 343 341 339 335 306 285 278 266 228 230 229 233 220 220 213 213 212 211 196 196 185 180 177 172 190
358 356 354 358 354 351 351 346 346 344 342 333 317 295 262 261 234 226 223 229 224 217 211 216 211 203 196 188 181 189 192 157
355 351 348 355 360 358 350 350 345 345 339 336 331 319 289 259 248 228 227 218 222 221 214 210 214 212 195 193 191 193 208 187
346 346 345 349 356 357 359 347 342 346 338 334 334 332 329 289 259 239 227 224 217 221 214 207 213 210 209 210 189 184 208 198
349 348 344 343 347 354 353 355 336 342 343 334 334 338 340 321 264 255 243 186 166 149 125 132 234 224 190 203 165 208 222 213
347 348 349 347 344 347 346 352 346 336 348 332 336 339 345 337 326 56 52 46 51 190 196 215 209 172 219 171 221 217 201 220
340 344 339 346 343 341 344 350 354 332 341 337 324 342 342 334 340 351 31 41 28 109 95 152 169 195 202 194 199 210 226 227
345 339 338 345 341 345 341 350 352 339 334 335 336 348 341 343 343 343 14 21 5 7 315 164 129 185 154 220 199 227 225 235
345 337 350 337 339 342 342 346 346 348 325 341 340 333 340 336 332 360 3 3 359 2 343 21 22 19 355 293 334 238 226 229
339 340 352 319 332 340 342 341 338 346 331 345 334 343 330 334 341 352 356 357 0 2 355 13 27 24 314 297 287 340 336 304
337 340 337 333 340 340 344 344 342 341 338 344 349 342 351 343 349 359 345 352 354 349 352 358 8 354 350 32 5 351 323 307
336 339 339 340 345 342 346 345 350 341 347 344 356 348 352 351 347 333 345 351 348 349 344 352 3 358 42 25 359 335 313 305
340 340 343 340 342 343 344 342 344 349 350 344 350 352 352 350 335 339 343 330 339 345 348 356 359 359 43 19 356 319 304 298
340 341 341 340 339 344 345 341 343 344 353 348 348 348 349 348 340 340 339 337 334 1 348 348 355 352 34 346 344 327 313 306
338 338 339 337 339 346 340 339 345 345 350 348 347 348 345 344 346 346 343 344 356 356 335 354 349 355 1 345 341 330 324 316